Weather History for Columbus, OH

Change the Weather History Date:

Friday, September 13, 2013

  Actual Average Record
Temperature  
Mean Temperature 59 °F 68 °F  
Max Temperature 66 °F 78 °F 95 °F (1939)
Min Temperature 52 °F 58 °F 38 °F (1964)
Degree Days  
Heating Degree Days 6 1  
Month to date heating degree days 8 11  
Since 1 July heating degree days 12 11  
Cooling Degree Days 0 4  
Month to date cooling degree days 106 76  
Year to date cooling degree days 1107 965  
Growing Degree Days 10 (Base 50)    
Moisture  
Dew Point 50 °F    
Average Humidity 73    
Maximum Humidity 90    
Minimum Humidity 56    
Precipitation  
Precipitation 0.00 in 0.09 in 2.20 in (1979)
Month to date precipitation 0.88 1.30  
Year to date precipitation 27.52 28.99  
Snow  
Snow 0.00 in 0.00 in - ()
Month to date snowfall 0.0 0.0  
Since 1 July snowfall 0.0 0.0  
Since 1 September snowfall 0.0 0.0  
Snow Depth 0.00 in    
Sea Level Pressure  
Sea Level Pressure 29.99 in    
Wind  
Wind Speed 11 mph (NNW)    
Max Wind Speed 20 mph    
Max Gust Speed 25 mph    
Visibility 10 miles    
Events      
T = Trace of Precipitation, MM = Missing Value Source: NWS Daily Summary

Daily Weather History Graph

Daily Weather History Graph

Search for Another Location

Airport:

Trip Planner

Search our weather history database for the weather conditions in past years. The results will help you decide how hot, cold, wet, or windy it might be!

Date:

Astronomy

Sep. 13, 2013 Rise Set
Actual Time 7:10 AM EDT 7:43 PM EDT
Civil Twilight 6:43 AM EDT 8:10 PM EDT
Nautical Twilight 6:11 AM EDT 8:42 PM EDT
Astronomical Twilight 5:38 AM EDT 9:15 PM EDT
Moon 3:31 PM EDT (9/13) 12:39 AM EDT (9/13)
Length of Visible Light 13h 26m
Length of Day
12h 32m
First Quarter, 61% of the Moon is Illuminated
Sep 13
First Quarter
Sep 19
Full
Sep 26
Last Quarter
Oct 4
New
Oct 11
First Quarter

Hourly Weather History & Observations

Time (EDT) Temp. Dew Point Humidity Pressure Visibility Wind Dir Wind Speed Gust Speed Precip Events Conditions
12:51 AM 63.0 °F 57.9 °F 84% 29.90 in 10.0 mi North 10.4 mph - N/A   Overcast
1:51 AM 62.1 °F 57.9 °F 86% 29.91 in 10.0 mi NNW 6.9 mph - N/A   Scattered Clouds
2:42 AM 60.8 °F 57.2 °F 88% 29.93 in 10.0 mi NNW 10.4 mph - N/A   Mostly Cloudy
2:51 AM 61.0 °F 57.9 °F 90% 29.92 in 10.0 mi NNW 10.4 mph - N/A   Mostly Cloudy
3:04 AM 62.6 °F 57.2 °F 82% 29.93 in 10.0 mi NNW 11.5 mph - N/A   Overcast
3:34 AM 60.8 °F 55.4 °F 82% 29.93 in 10.0 mi NNW 9.2 mph 18.4 mph N/A   Scattered Clouds
3:51 AM 60.1 °F 55.0 °F 83% 29.92 in 10.0 mi NNW 11.5 mph 18.4 mph N/A   Partly Cloudy
4:51 AM 57.9 °F 52.0 °F 81% 29.94 in 10.0 mi NNW 13.8 mph - N/A   Clear
5:51 AM 55.9 °F 51.1 °F 84% 29.95 in 10.0 mi NNW 10.4 mph - N/A   Clear
6:51 AM 55.0 °F 48.9 °F 80% 29.96 in 10.0 mi NNW 10.4 mph - N/A   Clear
7:51 AM 54.0 °F 46.9 °F 77% 29.99 in 10.0 mi NNW 10.4 mph - N/A   Clear
8:51 AM 55.9 °F 46.9 °F 72% 29.98 in 10.0 mi NNW 12.7 mph 20.7 mph N/A   Partly Cloudy
9:51 AM 59.0 °F 48.0 °F 67% 29.99 in 10.0 mi NNW 11.5 mph - N/A   Scattered Clouds
10:51 AM 61.0 °F 48.0 °F 62% 30.00 in 9.0 mi NNW 12.7 mph - N/A   Scattered Clouds
11:51 AM 62.1 °F 48.0 °F 60% 30.01 in 10.0 mi NW 9.2 mph - N/A   Mostly Cloudy
12:51 PM 64.0 °F 48.0 °F 56% 30.01 in 10.0 mi NNW 15.0 mph 18.4 mph N/A   Mostly Cloudy
1:51 PM 62.1 °F 48.0 °F 60% 30.01 in 10.0 mi NNW 10.4 mph 20.7 mph N/A   Overcast
2:51 PM 64.9 °F 48.9 °F 56% 30.00 in 10.0 mi North 16.1 mph 23.0 mph N/A   Mostly Cloudy
3:51 PM 64.0 °F 48.0 °F 56% 30.00 in 10.0 mi North 16.1 mph 24.2 mph N/A   Mostly Cloudy
4:51 PM 63.0 °F 48.0 °F 58% 30.01 in 10.0 mi North 16.1 mph - N/A   Mostly Cloudy
5:51 PM 63.0 °F 48.0 °F 58% 30.02 in 10.0 mi North 16.1 mph - N/A   Mostly Cloudy
6:51 PM 61.0 °F 46.9 °F 60% 30.03 in 10.0 mi North 10.4 mph - N/A   Scattered Clouds
7:51 PM 59.0 °F 46.0 °F 62% 30.05 in 10.0 mi North 10.4 mph - N/A   Partly Cloudy
8:51 PM 57.0 °F 46.0 °F 67% 30.07 in 10.0 mi North 10.4 mph - N/A   Partly Cloudy
9:51 PM 55.0 °F 46.9 °F 74% 30.08 in 10.0 mi North 5.8 mph - N/A   Clear
10:51 PM 54.0 °F 46.9 °F 77% 30.09 in 10.0 mi North 6.9 mph - N/A   Partly Cloudy
11:51 PM 53.1 °F 46.9 °F 80% 30.09 in 10.0 mi North 8.1 mph - N/A   Partly Cloudy